Time,TemperatureF,DewpointF,PressureIn,WindDirection,WindDirectionDegrees,WindSpeedMPH,WindSpeedGustMPH,Humidity,HourlyPrecipIn,Conditions,Clouds,dailyrainin,SolarRadiationWatts/m^2,SoftwareType,DateUTC
2013-02-05 00:01:00,28.0,20.0,-100.00,NE,56,5.0,7.0,72,0.00,,,0.00,0.000000,,2013-02-05 07:01:00,
2013-02-05 00:11:00,28.0,20.0,-100.00,NE,56,5.0,7.0,72,0.00,,,0.00,0.000000,,2013-02-05 07:11:00,
2013-02-05 00:22:00,28.0,20.0,-100.00,NE,56,5.0,7.0,72,0.00,,,0.00,0.000000,,2013-02-05 07:22:00,
2013-02-05 00:31:00,28.0,20.0,-100.00,NE,56,5.0,7.0,72,0.00,,,0.00,0.000000,,2013-02-05 07:31:00,
2013-02-05 00:52:00,26.0,22.0,-100.00,ENE,67,5.0,6.0,86,0.00,,,0.00,0.000000,,2013-02-05 07:52:00,
2013-02-05 01:01:00,26.0,22.0,-100.00,ENE,67,5.0,6.0,86,0.00,,,0.00,0.000000,,2013-02-05 08:01:00,
2013-02-05 01:11:00,26.0,22.0,-100.00,ENE,67,5.0,6.0,86,0.00,,,0.00,0.000000,,2013-02-05 08:11:00,
2013-02-05 01:21:00,26.0,22.0,-100.00,ENE,67,5.0,6.0,86,0.00,,,0.00,0.000000,,2013-02-05 08:21:00,
2013-02-05 01:31:00,26.0,22.0,-100.00,ENE,67,5.0,6.0,86,0.00,,,0.00,0.000000,,2013-02-05 08:31:00,
2013-02-05 01:52:00,26.0,20.0,-100.00,ENE,71,5.0,8.0,79,0.00,,,0.00,0.000000,,2013-02-05 08:52:00,
2013-02-05 02:02:00,26.0,20.0,-100.00,ENE,71,5.0,8.0,79,0.00,,,0.00,0.000000,,2013-02-05 09:02:00,
2013-02-05 02:11:00,26.0,20.0,-100.00,ENE,71,5.0,8.0,79,0.00,,,0.00,0.000000,,2013-02-05 09:11:00,
2013-02-05 02:21:00,26.0,20.0,-100.00,ENE,71,5.0,8.0,79,0.00,,,0.00,0.000000,,2013-02-05 09:21:00,
2013-02-05 02:31:00,26.0,20.0,-100.00,ENE,71,5.0,8.0,79,0.00,,,0.00,0.000000,,2013-02-05 09:31:00,
2013-02-05 02:52:00,25.0,20.0,-100.00,NE,56,8.0,9.0,81,0.00,,,0.00,0.000000,,2013-02-05 09:52:00,
2013-02-05 03:01:00,25.0,20.0,-100.00,NE,56,8.0,9.0,81,0.00,,,0.00,0.000000,,2013-02-05 10:01:00,
2013-02-05 03:11:00,25.0,20.0,-100.00,NE,56,8.0,9.0,81,0.00,,,0.00,0.000000,,2013-02-05 10:11:00,
2013-02-05 03:21:00,25.0,20.0,-100.00,NE,56,8.0,9.0,81,0.00,,,0.00,0.000000,,2013-02-05 10:21:00,
2013-02-05 03:31:00,25.0,20.0,-100.00,NE,56,8.0,9.0,81,0.00,,,0.00,0.000000,,2013-02-05 10:31:00,
2013-02-05 03:52:00,22.0,18.0,-100.00,ENE,60,7.0,10.0,85,0.00,,,0.00,0.000000,,2013-02-05 10:52:00,
2013-02-05 04:01:00,22.0,18.0,-100.00,ENE,60,7.0,10.0,85,0.00,,,0.00,0.000000,,2013-02-05 11:01:00,
2013-02-05 04:11:00,22.0,18.0,-100.00,ENE,60,7.0,10.0,85,0.00,,,0.00,0.000000,,2013-02-05 11:11:00,
2013-02-05 04:22:00,22.0,18.0,-100.00,ENE,60,7.0,10.0,85,0.00,,,0.00,0.000000,,2013-02-05 11:22:00,
2013-02-05 04:32:00,22.0,18.0,-100.00,ENE,60,7.0,10.0,85,0.00,,,0.00,0.000000,,2013-02-05 11:32:00,
2013-02-05 04:52:00,23.0,19.0,-100.00,East,79,5.0,9.0,86,0.00,,,0.00,0.000000,,2013-02-05 11:52:00,
2013-02-05 05:01:00,23.0,19.0,-100.00,East,79,5.0,9.0,86,0.00,,,0.00,0.000000,,2013-02-05 12:01:00,
2013-02-05 05:12:00,23.0,19.0,-100.00,East,79,5.0,9.0,86,0.00,,,0.00,0.000000,,2013-02-05 12:12:00,
2013-02-05 05:21:00,23.0,19.0,-100.00,East,79,5.0,9.0,86,0.00,,,0.00,0.000000,,2013-02-05 12:21:00,
2013-02-05 05:31:00,23.0,19.0,-100.00,East,79,5.0,9.0,86,0.00,,,0.00,0.000000,,2013-02-05 12:31:00,
2013-02-05 05:52:00,21.0,17.0,-100.00,ENE,59,7.0,8.0,83,0.00,,,0.00,0.000000,,2013-02-05 12:52:00,
2013-02-05 06:01:00,21.0,17.0,-100.00,ENE,59,7.0,8.0,83,0.00,,,0.00,0.000000,,2013-02-05 13:01:00,
2013-02-05 06:11:00,21.0,17.0,-100.00,ENE,59,7.0,8.0,83,0.00,,,0.00,0.000000,,2013-02-05 13:11:00,
2013-02-05 06:21:00,21.0,17.0,-100.00,ENE,59,7.0,8.0,83,0.00,,,0.00,0.000000,,2013-02-05 13:21:00,
2013-02-05 06:31:00,21.0,17.0,-100.00,ENE,59,7.0,8.0,83,0.00,,,0.00,0.000000,,2013-02-05 13:31:00,
2013-02-05 06:52:00,21.0,17.0,-100.00,ENE,60,8.0,9.0,83,0.00,,,0.00,0.000000,,2013-02-05 13:52:00,
2013-02-05 07:01:00,21.0,17.0,-100.00,ENE,60,8.0,9.0,83,0.00,,,0.00,0.000000,,2013-02-05 14:01:00,
2013-02-05 07:12:00,21.0,17.0,-100.00,ENE,60,8.0,9.0,83,0.00,,,0.00,0.000000,,2013-02-05 14:12:00,
2013-02-05 07:21:00,21.0,17.0,-100.00,ENE,60,8.0,9.0,83,0.00,,,0.00,0.000000,,2013-02-05 14:21:00,
2013-02-05 07:31:00,21.0,17.0,-100.00,ENE,60,8.0,9.0,83,0.00,,,0.00,0.000000,,2013-02-05 14:31:00,
2013-02-05 07:52:00,22.0,17.0,-100.00,ENE,66,5.0,9.0,80,0.00,,,0.00,4.000000,,2013-02-05 14:52:00,
2013-02-05 08:01:00,22.0,17.0,-100.00,ENE,66,5.0,9.0,80,0.00,,,0.00,4.000000,,2013-02-05 15:01:00,
2013-02-05 08:11:00,22.0,17.0,-100.00,ENE,66,5.0,9.0,80,0.00,,,0.00,4.000000,,2013-02-05 15:11:00,
2013-02-05 08:21:00,22.0,17.0,-100.00,ENE,66,5.0,9.0,80,0.00,,,0.00,4.000000,,2013-02-05 15:21:00,
2013-02-05 08:32:00,22.0,17.0,-100.00,ENE,66,5.0,9.0,80,0.00,,,0.00,4.000000,,2013-02-05 15:32:00,
2013-02-05 08:52:00,24.0,18.0,-100.00,NNE,31,6.0,9.0,78,0.00,,,0.00,133.000000,,2013-02-05 15:52:00,
2013-02-05 09:01:00,24.0,18.0,-100.00,NNE,31,6.0,9.0,78,0.00,,,0.00,133.000000,,2013-02-05 16:01:00,
2013-02-05 09:11:00,24.0,18.0,-100.00,NNE,31,6.0,9.0,78,0.00,,,0.00,133.000000,,2013-02-05 16:11:00,
2013-02-05 09:22:00,24.0,18.0,-100.00,NNE,31,6.0,9.0,78,0.00,,,0.00,133.000000,,2013-02-05 16:22:00,
2013-02-05 09:32:00,24.0,18.0,-100.00,NNE,31,6.0,9.0,78,0.00,,,0.00,133.000000,,2013-02-05 16:32:00,
2013-02-05 09:52:00,30.0,19.0,-100.00,East,85,5.0,7.0,62,0.00,,,-99.99,323.000000,,2013-02-05 16:52:00,
2013-02-05 10:01:00,30.0,19.0,-100.00,East,85,5.0,7.0,62,0.00,,,-99.99,323.000000,,2013-02-05 17:01:00,
2013-02-05 10:11:00,30.0,19.0,-100.00,East,85,5.0,7.0,62,0.00,,,-99.99,323.000000,,2013-02-05 17:11:00,
2013-02-05 10:21:00,30.0,19.0,-100.00,East,85,5.0,7.0,62,0.00,,,-99.99,323.000000,,2013-02-05 17:21:00,
2013-02-05 10:32:00,30.0,19.0,-100.00,East,85,5.0,7.0,62,0.00,,,-99.99,323.000000,,2013-02-05 17:32:00,
2013-02-05 10:52:00,35.0,20.0,-100.00,NNW,336,3.0,5.0,54,0.00,,,0.00,473.000000,,2013-02-05 17:52:00,
2013-02-05 11:01:00,35.0,20.0,-100.00,NNW,336,3.0,5.0,54,0.00,,,0.00,473.000000,,2013-02-05 18:01:00,
2013-02-05 11:11:00,35.0,20.0,-100.00,NNW,336,3.0,5.0,54,0.00,,,0.00,473.000000,,2013-02-05 18:11:00,
2013-02-05 11:21:00,35.0,20.0,-100.00,NNW,336,3.0,5.0,54,0.00,,,0.00,473.000000,,2013-02-05 18:21:00,
2013-02-05 11:31:00,35.0,20.0,-100.00,NNW,336,3.0,5.0,54,0.00,,,0.00,473.000000,,2013-02-05 18:31:00,
2013-02-05 11:52:00,35.0,19.0,-100.00,ENE,77,5.0,6.0,52,0.00,,,0.00,545.000000,,2013-02-05 18:52:00,
2013-02-05 12:02:00,35.0,19.0,-100.00,ENE,77,5.0,6.0,52,0.00,,,0.00,545.000000,,2013-02-05 19:02:00,
2013-02-05 12:11:00,35.0,19.0,-100.00,ENE,77,5.0,6.0,52,0.00,,,0.00,545.000000,,2013-02-05 19:11:00,
2013-02-05 12:21:00,35.0,19.0,-100.00,ENE,77,5.0,6.0,52,0.00,,,0.00,545.000000,,2013-02-05 19:21:00,
2013-02-05 12:31:00,35.0,19.0,-100.00,ENE,77,5.0,6.0,52,0.00,,,0.00,545.000000,,2013-02-05 19:31:00,
2013-02-05 12:52:00,36.0,20.0,-100.00,East,87,5.0,7.0,52,0.00,,,0.00,595.000000,,2013-02-05 19:52:00,
2013-02-05 13:01:00,36.0,20.0,-100.00,East,87,5.0,7.0,52,0.00,,,0.00,595.000000,,2013-02-05 20:01:00,
2013-02-05 13:31:00,36.0,20.0,-100.00,East,87,5.0,7.0,52,0.00,,,0.00,595.000000,,2013-02-05 20:31:00,
2013-02-05 13:52:00,46.0,20.0,-100.00,NE,38,1.0,5.0,35,0.00,,,0.00,686.000000,,2013-02-05 20:52:00,
2013-02-05 14:01:00,46.0,20.0,-100.00,NE,38,1.0,5.0,35,0.00,,,0.00,686.000000,,2013-02-05 21:01:00,
2013-02-05 14:11:00,46.0,20.0,-100.00,NE,38,1.0,5.0,35,0.00,,,0.00,686.000000,,2013-02-05 21:11:00,
2013-02-05 14:21:00,46.0,20.0,-100.00,NE,38,1.0,5.0,35,0.00,,,0.00,686.000000,,2013-02-05 21:21:00,
2013-02-05 14:31:00,46.0,20.0,-100.00,NE,38,1.0,5.0,35,0.00,,,0.00,686.000000,,2013-02-05 21:31:00,
2013-02-05 14:52:00,45.0,17.0,-100.00,East,92,3.0,5.0,32,0.00,,,0.00,614.000000,,2013-02-05 21:52:00,
2013-02-05 15:01:00,45.0,17.0,-100.00,East,92,3.0,5.0,32,0.00,,,0.00,614.000000,,2013-02-05 22:01:00,
2013-02-05 15:11:00,45.0,17.0,-100.00,East,92,3.0,5.0,32,0.00,,,0.00,614.000000,,2013-02-05 22:11:00,
2013-02-05 15:21:00,45.0,17.0,-100.00,East,92,3.0,5.0,32,0.00,,,0.00,614.000000,,2013-02-05 22:21:00,
2013-02-05 15:31:00,45.0,17.0,-100.00,East,92,3.0,5.0,32,0.00,,,0.00,614.000000,,2013-02-05 22:31:00,
2013-02-05 15:52:00,45.0,18.0,-100.00,East,79,3.0,5.0,33,0.00,,,0.00,464.000000,,2013-02-05 22:52:00,
2013-02-05 16:01:00,45.0,18.0,-100.00,East,79,3.0,5.0,33,0.00,,,0.00,464.000000,,2013-02-05 23:01:00,
2013-02-05 16:11:00,45.0,18.0,-100.00,East,79,3.0,5.0,33,0.00,,,0.00,464.000000,,2013-02-05 23:11:00,
2013-02-05 16:21:00,45.0,18.0,-100.00,East,79,3.0,5.0,33,0.00,,,0.00,464.000000,,2013-02-05 23:21:00,
2013-02-05 16:31:00,45.0,18.0,-100.00,East,79,3.0,5.0,33,0.00,,,0.00,464.000000,,2013-02-05 23:31:00,
2013-02-05 16:52:00,43.0,16.0,-100.00,East,91,3.0,6.0,33,0.00,,,0.00,285.000000,,2013-02-05 23:52:00,
2013-02-05 17:01:00,43.0,16.0,-100.00,East,91,3.0,6.0,33,0.00,,,0.00,285.000000,,2013-02-06 00:01:00,
2013-02-05 17:11:00,43.0,16.0,-100.00,East,91,3.0,6.0,33,0.00,,,0.00,285.000000,,2013-02-06 00:11:00,
2013-02-05 17:21:00,43.0,16.0,-100.00,East,91,3.0,6.0,33,0.00,,,0.00,285.000000,,2013-02-06 00:21:00,
2013-02-05 17:31:00,43.0,16.0,-100.00,East,91,3.0,6.0,33,0.00,,,0.00,285.000000,,2013-02-06 00:31:00,
2013-02-05 17:52:00,40.0,18.0,-100.00,South,171,3.0,6.0,40,0.00,,,0.00,92.000000,,2013-02-06 00:52:00,
2013-02-05 18:01:00,40.0,18.0,-100.00,South,171,3.0,6.0,40,0.00,,,0.00,92.000000,,2013-02-06 01:01:00,
2013-02-05 18:11:00,40.0,18.0,-100.00,South,171,3.0,6.0,40,0.00,,,0.00,92.000000,,2013-02-06 01:11:00,
2013-02-05 18:21:00,40.0,18.0,-100.00,South,171,3.0,6.0,40,0.00,,,0.00,92.000000,,2013-02-06 01:21:00,
2013-02-05 18:31:00,40.0,18.0,-100.00,South,171,3.0,6.0,40,0.00,,,0.00,92.000000,,2013-02-06 01:31:00,
2013-02-05 18:53:00,37.0,22.0,-100.00,SW,227,4.0,7.0,54,0.00,,,0.00,2.000000,,2013-02-06 01:53:00,
2013-02-05 19:01:00,37.0,22.0,-100.00,SW,227,4.0,7.0,54,0.00,,,0.00,2.000000,,2013-02-06 02:01:00,
2013-02-05 19:11:00,37.0,22.0,-100.00,SW,227,4.0,7.0,54,0.00,,,0.00,2.000000,,2013-02-06 02:11:00,
2013-02-05 19:21:00,37.0,22.0,-100.00,SW,227,4.0,7.0,54,0.00,,,0.00,2.000000,,2013-02-06 02:21:00,
2013-02-05 19:31:00,37.0,22.0,-100.00,SW,227,4.0,7.0,54,0.00,,,0.00,2.000000,,2013-02-06 02:31:00,
2013-02-05 19:52:00,35.0,20.0,-100.00,WSW,246,5.0,10.0,55,0.00,,,0.00,0.000000,,2013-02-06 02:52:00,
2013-02-05 20:02:00,35.0,20.0,-100.00,WSW,246,5.0,10.0,55,0.00,,,0.00,0.000000,,2013-02-06 03:02:00,
2013-02-05 20:12:00,35.0,20.0,-100.00,WSW,246,5.0,10.0,55,0.00,,,0.00,0.000000,,2013-02-06 03:12:00,
2013-02-05 20:21:00,35.0,20.0,-100.00,WSW,246,5.0,10.0,55,0.00,,,0.00,0.000000,,2013-02-06 03:21:00,
2013-02-05 20:31:00,35.0,20.0,-100.00,WSW,246,5.0,10.0,55,0.00,,,0.00,0.000000,,2013-02-06 03:31:00,
2013-02-05 20:53:00,35.0,16.0,-100.00,West,273,5.0,10.0,46,0.00,,,0.00,0.000000,,2013-02-06 03:53:00,
2013-02-05 21:02:00,35.0,16.0,-100.00,West,273,5.0,10.0,46,0.00,,,0.00,0.000000,,2013-02-06 04:02:00,
2013-02-05 21:11:00,35.0,16.0,-100.00,West,273,5.0,10.0,46,0.00,,,0.00,0.000000,,2013-02-06 04:11:00,
2013-02-05 21:21:00,35.0,16.0,-100.00,West,273,5.0,10.0,46,0.00,,,0.00,0.000000,,2013-02-06 04:21:00,
2013-02-05 21:31:00,35.0,16.0,-100.00,West,273,5.0,10.0,46,0.00,,,0.00,0.000000,,2013-02-06 04:31:00,
2013-02-05 21:52:00,35.0,16.0,-100.00,WSW,237,3.0,5.0,46,0.00,,,0.00,0.000000,,2013-02-06 04:52:00,
2013-02-05 22:01:00,35.0,16.0,-100.00,WSW,237,3.0,5.0,46,0.00,,,0.00,0.000000,,2013-02-06 05:01:00,
2013-02-05 22:12:00,35.0,16.0,-100.00,WSW,237,3.0,5.0,46,0.00,,,0.00,0.000000,,2013-02-06 05:12:00,
2013-02-05 22:22:00,35.0,16.0,-100.00,WSW,237,3.0,5.0,46,0.00,,,0.00,0.000000,,2013-02-06 05:22:00,
2013-02-05 22:31:00,35.0,16.0,-100.00,WSW,237,3.0,5.0,46,0.00,,,0.00,0.000000,,2013-02-06 05:31:00,
2013-02-05 22:53:00,34.0,14.0,-100.00,NE,34,2.0,5.0,43,0.00,,,0.00,0.000000,,2013-02-06 05:53:00,
2013-02-05 23:01:00,34.0,14.0,-100.00,NE,34,2.0,5.0,43,0.00,,,0.00,0.000000,,2013-02-06 06:01:00,
2013-02-05 23:11:00,34.0,14.0,-100.00,NE,34,2.0,5.0,43,0.00,,,0.00,0.000000,,2013-02-06 06:11:00,
2013-02-05 23:21:00,34.0,14.0,-100.00,NE,34,2.0,5.0,43,0.00,,,0.00,0.000000,,2013-02-06 06:21:00,
2013-02-05 23:31:00,34.0,14.0,-100.00,NE,34,2.0,5.0,43,0.00,,,0.00,0.000000,,2013-02-06 06:31:00,
2013-02-05 23:52:00,31.0,20.0,-100.00,NE,50,4.0,5.0,63,0.00,,,0.00,0.000000,,2013-02-06 06:52:00,